Location: Madrid
(40.4167°N, 3.7036°W)
Time: 13:07:34
(UTC+00:00)

ISS - Pass Details

Date: 11 July 2024
Orbit: 410 x 424 km, 51.6° (Epoch: 14 July)

Event Time Altitude Azimuth Distance (km) Brightness Sun altitude
Rises 20:08:12 0° 222° (SW) 2,326 0.1 -4.4°
Reaches altitude 10° 20:10:18 10° 217° (SW) 1,468 -0.9 -4.8°
Maximum altitude 20:13:31 54° 139° (SE) 502 -3.7 -5.3°
Drops below altitude 10° 20:16:45 10° 61° (ENE) 1,476 -1.2 -5.8°
Sets 20:18:52 0° 57° (ENE) 2,342 -0.2 -6.1°
